Terminal Aerodrome Forecast
Issued by NWS

Home | Current Version | Previous Version | Text Only | Print | Product List | Glossary On
Versions: 1 2 3 4 5 6 7 8 9 10 11 12 13 14 15
000
FTUS44 KMAF 190500
TAFPEQ
TAF
KPEQ 190520Z 1906/2006 28005KT P6SM SCT070 OVC100
      TEMPO 1912/1915 5SM BR
     FM191600 29006KT P6SM SKC=

USA.gov is the U.S. government's official web portal to all federal, state and local government web resources and services.